Time,TemperatureF,DewpointF,PressureIn,WindDirection,WindDirectionDegrees,WindSpeedMPH,WindSpeedGustMPH,Humidity,HourlyPrecipIn,Conditions,Clouds,dailyrainin,SolarRadiationWatts/m^2,SoftwareType,DateUTC
2013-06-14 00:01:00,75.9,74.0,29.97,SE,128,0.0,-999.0,94,-99.99,,,0.00,0,weatherlink.com 1.10,2013-06-14 04:01:00,
2013-06-14 00:16:00,75.9,74.0,29.99,SE,128,0.0,-999.0,95,-99.99,,,0.00,0,weatherlink.com 1.10,2013-06-14 04:16:00,
2013-06-14 00:31:00,76.0,75.0,29.99,SE,128,0.0,-999.0,95,-99.99,,,0.00,0,weatherlink.com 1.10,2013-06-14 04:31:00,
2013-06-14 00:46:00,76.0,75.0,29.98,SE,128,0.0,-999.0,95,-99.99,,,0.00,0,weatherlink.com 1.10,2013-06-14 04:46:00,
2013-06-14 01:01:00,75.9,74.0,29.98,SE,128,0.0,-999.0,95,-99.99,,,0.00,0,weatherlink.com 1.10,2013-06-14 05:01:00,
2013-06-14 01:16:00,75.9,74.0,29.97,SE,128,0.0,-999.0,95,-99.99,,,0.00,0,weatherlink.com 1.10,2013-06-14 05:16:00,
2013-06-14 01:31:00,75.8,74.0,29.97,SE,128,0.0,-999.0,94,-99.99,,,0.00,0,weatherlink.com 1.10,2013-06-14 05:31:00,
2013-06-14 01:46:00,75.6,74.0,29.96,SE,128,0.0,-999.0,94,-99.99,,,0.00,0,weatherlink.com 1.10,2013-06-14 05:46:00,
2013-06-14 02:01:00,75.4,74.0,29.96,SE,128,0.0,-999.0,94,-99.99,,,0.00,0,weatherlink.com 1.10,2013-06-14 06:01:00,
2013-06-14 02:16:00,75.2,74.0,29.96,SE,128,0.0,-999.0,95,-99.99,,,0.00,0,weatherlink.com 1.10,2013-06-14 06:16:00,
2013-06-14 02:31:00,75.0,74.0,29.95,SE,128,0.0,-999.0,95,-99.99,,,0.00,0,weatherlink.com 1.10,2013-06-14 06:31:00,
2013-06-14 02:46:00,74.9,73.0,29.95,SE,128,0.0,-999.0,95,-99.99,,,0.00,0,weatherlink.com 1.10,2013-06-14 06:46:00,
2013-06-14 03:01:00,74.8,73.0,29.95,SE,128,0.0,-999.0,94,-99.99,,,0.00,0,weatherlink.com 1.10,2013-06-14 07:01:00,
2013-06-14 03:16:00,74.8,73.0,29.95,SE,128,0.0,-999.0,95,-99.99,,,0.00,0,weatherlink.com 1.10,2013-06-14 07:16:00,
2013-06-14 03:31:00,74.7,73.0,29.95,SE,128,0.0,-999.0,95,-99.99,,,0.00,0,weatherlink.com 1.10,2013-06-14 07:31:00,
2013-06-14 03:46:00,75.6,74.0,29.95,SSE,152,0.0,-999.0,95,-99.99,,,0.00,0,weatherlink.com 1.10,2013-06-14 07:46:00,
2013-06-14 04:01:00,76.2,74.0,29.94,SSE,154,0.0,-999.0,93,-99.99,,,0.00,0,weatherlink.com 1.10,2013-06-14 08:01:00,
2013-06-14 04:16:00,77.3,75.0,29.93,SW,216,0.0,-999.0,91,-99.99,,,0.00,0,weatherlink.com 1.10,2013-06-14 08:16:00,
2013-06-14 04:31:00,78.1,75.0,29.93,SW,217,0.0,-999.0,90,-99.99,,,0.00,0,weatherlink.com 1.10,2013-06-14 08:31:00,
2013-06-14 04:46:00,78.6,75.0,29.92,SW,217,0.0,-999.0,89,-99.99,,,0.00,0,weatherlink.com 1.10,2013-06-14 08:46:00,
2013-06-14 05:01:00,78.7,75.0,29.92,WSW,238,0.0,-999.0,88,-99.99,,,0.00,0,weatherlink.com 1.10,2013-06-14 09:01:00,
2013-06-14 05:16:00,78.6,75.0,29.92,WSW,237,0.0,-999.0,88,-99.99,,,0.00,0,weatherlink.com 1.10,2013-06-14 09:16:00,
2013-06-14 05:31:00,78.7,75.0,29.92,SW,235,0.0,-999.0,88,-99.99,,,0.00,0,weatherlink.com 1.10,2013-06-14 09:31:00,
2013-06-14 05:46:00,78.6,75.0,29.92,WSW,239,0.0,-999.0,88,-99.99,,,0.00,0,weatherlink.com 1.10,2013-06-14 09:46:00,
2013-06-14 06:01:00,78.8,75.0,29.93,SW,232,0.0,-999.0,87,-99.99,,,0.00,0,weatherlink.com 1.10,2013-06-14 10:01:00,
2013-06-14 06:16:00,78.9,75.0,29.93,SW,232,0.0,-999.0,87,-99.99,,,0.00,0,weatherlink.com 1.10,2013-06-14 10:16:00,
2013-06-14 06:31:00,78.9,75.0,29.93,WSW,242,0.0,-999.0,87,-99.99,,,0.00,5,weatherlink.com 1.10,2013-06-14 10:31:00,
2013-06-14 06:46:00,78.8,75.0,29.93,WSW,242,0.0,-999.0,88,-99.99,,,0.00,14,weatherlink.com 1.10,2013-06-14 10:46:00,
2013-06-14 07:01:00,78.8,75.0,29.93,WSW,243,0.0,-999.0,88,-99.99,,,0.00,26,weatherlink.com 1.10,2013-06-14 11:01:00,
2013-06-14 07:16:00,79.3,75.0,29.93,West,259,0.0,-999.0,87,-99.99,,,0.00,65,weatherlink.com 1.10,2013-06-14 11:16:00,
2013-06-14 07:31:00,80.1,76.0,29.93,WSW,249,0.0,-999.0,87,-99.99,,,0.00,123,weatherlink.com 1.10,2013-06-14 11:31:00,
2013-06-14 07:46:00,80.7,76.0,29.93,NW,309,0.0,-999.0,85,-99.99,,,0.00,165,weatherlink.com 1.10,2013-06-14 11:46:00,
2013-06-14 08:01:00,81.4,76.0,29.93,WSW,245,0.0,-999.0,83,-99.99,,,0.00,211,weatherlink.com 1.10,2013-06-14 12:01:00,
2013-06-14 08:16:00,82.6,77.0,29.94,WSW,243,0.0,-999.0,82,-99.99,,,0.00,295,weatherlink.com 1.10,2013-06-14 12:16:00,
2013-06-14 08:31:00,83.0,77.0,29.93,WSW,258,0.0,-999.0,81,-99.99,,,0.00,318,weatherlink.com 1.10,2013-06-14 12:31:00,
2013-06-14 08:46:00,84.1,77.0,29.95,WNW,301,4.0,-999.0,79,-99.99,,,0.00,369,weatherlink.com 1.10,2013-06-14 12:46:00,
2013-06-14 09:01:00,84.9,77.0,29.95,SSW,200,0.0,-999.0,76,-99.99,,,0.00,424,weatherlink.com 1.10,2013-06-14 13:01:00,
2013-06-14 09:16:00,85.6,77.0,29.95,NW,309,0.0,-999.0,75,-99.99,,,0.00,466,weatherlink.com 1.10,2013-06-14 13:16:00,
2013-06-14 09:31:00,85.6,77.0,29.95,WNW,302,0.0,-999.0,76,-99.99,,,0.00,545,weatherlink.com 1.10,2013-06-14 13:31:00,
2013-06-14 09:46:00,85.9,77.0,29.95,WNW,299,0.0,-999.0,74,-99.99,,,0.00,621,weatherlink.com 1.10,2013-06-14 13:46:00,
2013-06-14 10:01:00,86.6,77.0,29.96,SW,216,1.0,-999.0,74,-99.99,,,0.00,714,weatherlink.com 1.10,2013-06-14 14:01:00,
2013-06-14 10:16:00,86.7,77.0,29.96,West,269,1.0,-999.0,72,-99.99,,,0.00,721,weatherlink.com 1.10,2013-06-14 14:16:00,
2013-06-14 10:31:00,86.9,76.0,29.97,WSW,240,0.0,-999.0,71,-99.99,,,0.00,742,weatherlink.com 1.10,2013-06-14 14:31:00,
2013-06-14 10:46:00,87.4,77.0,29.96,West,267,0.0,-999.0,71,-99.99,,,0.00,837,weatherlink.com 1.10,2013-06-14 14:46:00,
2013-06-14 11:01:00,88.1,77.0,29.96,WNW,286,0.0,-999.0,70,-99.99,,,0.00,796,weatherlink.com 1.10,2013-06-14 15:01:00,
2013-06-14 11:16:00,87.6,77.0,29.97,NW,317,0.0,-999.0,71,-99.99,,,0.00,888,weatherlink.com 1.10,2013-06-14 15:16:00,
2013-06-14 11:31:00,88.0,77.0,29.97,SSW,212,6.0,-999.0,70,-99.99,,,0.00,199,weatherlink.com 1.10,2013-06-14 15:31:00,
2013-06-14 11:46:00,88.3,78.0,29.97,WNW,289,0.0,-999.0,72,-99.99,,,0.00,954,weatherlink.com 1.10,2013-06-14 15:46:00,
2013-06-14 12:01:00,88.6,78.0,29.97,WSW,247,4.0,-999.0,71,-99.99,,,0.00,1035,weatherlink.com 1.10,2013-06-14 16:01:00,
2013-06-14 12:16:00,88.4,78.0,29.97,NW,311,0.0,-999.0,71,-99.99,,,0.00,998,weatherlink.com 1.10,2013-06-14 16:16:00,
2013-06-14 12:31:00,88.7,77.0,29.97,WNW,301,2.0,-999.0,69,-99.99,,,0.00,940,weatherlink.com 1.10,2013-06-14 16:31:00,
2013-06-14 12:46:00,88.6,78.0,29.97,SW,229,2.0,-999.0,70,-99.99,,,0.00,1025,weatherlink.com 1.10,2013-06-14 16:46:00,
2013-06-14 13:01:00,89.0,77.0,29.97,NW,306,0.0,-999.0,68,-99.99,,,0.00,969,weatherlink.com 1.10,2013-06-14 17:01:00,
2013-06-14 13:16:00,90.0,77.0,29.97,WSW,252,0.0,-999.0,66,-99.99,,,0.00,970,weatherlink.com 1.10,2013-06-14 17:16:00,
2013-06-14 13:31:00,88.9,78.0,29.97,WNW,293,3.0,-999.0,69,-99.99,,,0.00,214,weatherlink.com 1.10,2013-06-14 17:31:00,
2013-06-14 13:46:00,87.4,78.0,29.96,West,259,0.0,-999.0,74,-99.99,,,0.00,330,weatherlink.com 1.10,2013-06-14 17:46:00,
2013-06-14 14:01:00,88.2,77.0,29.95,West,276,0.0,-999.0,70,-99.99,,,0.00,1116,weatherlink.com 1.10,2013-06-14 18:01:00,
2013-06-14 14:16:00,88.2,78.0,29.95,North,11,0.0,-999.0,71,-99.99,,,0.00,958,weatherlink.com 1.10,2013-06-14 18:16:00,
2013-06-14 14:31:00,88.9,78.0,29.94,NW,311,4.0,-999.0,69,-99.99,,,0.00,919,weatherlink.com 1.10,2013-06-14 18:31:00,
2013-06-14 14:46:00,89.0,78.0,29.94,WSW,242,1.0,-999.0,69,-99.99,,,0.00,888,weatherlink.com 1.10,2013-06-14 18:46:00,
2013-06-14 15:01:00,89.0,77.0,29.93,WNW,288,0.0,-999.0,68,-99.99,,,0.00,879,weatherlink.com 1.10,2013-06-14 19:01:00,
2013-06-14 15:16:00,88.8,78.0,29.93,WNW,293,2.0,-999.0,70,-99.99,,,0.00,868,weatherlink.com 1.10,2013-06-14 19:16:00,
2013-06-14 15:31:00,89.0,77.0,29.93,West,271,1.0,-999.0,68,-99.99,,,0.00,696,weatherlink.com 1.10,2013-06-14 19:31:00,
2013-06-14 15:46:00,88.4,77.0,29.93,NW,325,2.0,-999.0,69,-99.99,,,0.00,708,weatherlink.com 1.10,2013-06-14 19:46:00,
2013-06-14 16:01:00,88.7,77.0,29.93,NW,313,0.0,-999.0,68,-99.99,,,0.00,668,weatherlink.com 1.10,2013-06-14 20:01:00,
2013-06-14 16:16:00,88.5,76.0,29.93,WNW,291,0.0,-999.0,67,-99.99,,,0.00,693,weatherlink.com 1.10,2013-06-14 20:16:00,
2013-06-14 16:31:00,89.0,75.0,29.93,West,279,0.0,-999.0,64,-99.99,,,0.00,606,weatherlink.com 1.10,2013-06-14 20:31:00,
2013-06-14 16:46:00,88.6,77.0,29.94,West,281,1.0,-999.0,68,-99.99,,,0.00,621,weatherlink.com 1.10,2013-06-14 20:46:00,
2013-06-14 17:01:00,88.9,77.0,29.94,NW,306,0.0,-999.0,68,-99.99,,,0.00,589,weatherlink.com 1.10,2013-06-14 21:01:00,
2013-06-14 17:16:00,88.3,77.0,29.93,WNW,292,0.0,-999.0,69,-99.99,,,0.00,578,weatherlink.com 1.10,2013-06-14 21:16:00,
2013-06-14 17:31:00,88.2,77.0,29.93,West,262,4.0,-999.0,69,-99.99,,,0.00,524,weatherlink.com 1.10,2013-06-14 21:31:00,
2013-06-14 17:46:00,88.8,76.0,29.93,NNW,330,2.0,-999.0,66,-99.99,,,0.00,455,weatherlink.com 1.10,2013-06-14 21:46:00,
2013-06-14 18:01:00,89.0,77.0,29.93,WNW,286,0.0,-999.0,67,-99.99,,,0.00,436,weatherlink.com 1.10,2013-06-14 22:01:00,
2013-06-14 18:16:00,89.0,77.0,29.92,West,277,0.0,-999.0,68,-99.99,,,0.00,316,weatherlink.com 1.10,2013-06-14 22:16:00,
2013-06-14 18:31:00,87.7,77.0,29.90,WSW,238,0.0,-999.0,71,-99.99,,,0.00,251,weatherlink.com 1.10,2013-06-14 22:31:00,
2013-06-14 18:46:00,87.3,77.0,29.90,WNW,302,0.0,-999.0,71,-99.99,,,0.00,232,weatherlink.com 1.10,2013-06-14 22:46:00,
2013-06-14 19:01:00,86.7,76.0,29.91,SW,229,5.0,-999.0,71,-99.99,,,0.00,174,weatherlink.com 1.10,2013-06-14 23:01:00,
2013-06-14 19:16:00,85.8,76.0,29.92,WNW,298,0.0,-999.0,72,-99.99,,,0.00,120,weatherlink.com 1.10,2013-06-14 23:16:00,
2013-06-14 19:31:00,84.4,76.0,29.93,WNW,288,0.0,-999.0,75,-99.99,,,0.00,40,weatherlink.com 1.10,2013-06-14 23:31:00,
2013-06-14 19:46:00,83.3,75.0,29.94,WNW,284,0.0,-999.0,76,-99.99,,,0.00,26,weatherlink.com 1.10,2013-06-14 23:46:00,
2013-06-14 20:01:00,82.6,75.0,29.95,WNW,284,1.0,-999.0,77,-99.99,,,0.00,14,weatherlink.com 1.10,2013-06-15 00:01:00,
2013-06-14 20:16:00,82.1,74.0,29.96,WNW,286,0.0,-999.0,77,-99.99,,,0.00,5,weatherlink.com 1.10,2013-06-15 00:16:00,
2013-06-14 20:31:00,81.7,75.0,29.95,WNW,296,0.0,-999.0,79,-99.99,,,0.00,0,weatherlink.com 1.10,2013-06-15 00:31:00,
2013-06-14 20:46:00,81.4,75.0,29.95,WNW,294,0.0,-999.0,80,-99.99,,,0.00,0,weatherlink.com 1.10,2013-06-15 00:46:00,
2013-06-14 21:01:00,81.2,75.0,29.95,WNW,298,0.0,-999.0,81,-99.99,,,0.00,0,weatherlink.com 1.10,2013-06-15 01:01:00,
2013-06-14 21:16:00,81.1,75.0,29.95,West,277,0.0,-999.0,82,-99.99,,,0.00,0,weatherlink.com 1.10,2013-06-15 01:16:00,
2013-06-14 21:31:00,80.9,74.0,29.95,West,269,3.0,-999.0,80,-99.99,,,0.00,0,weatherlink.com 1.10,2013-06-15 01:31:00,
2013-06-14 21:46:00,81.0,75.0,29.96,NW,320,0.0,-999.0,81,-99.99,,,0.00,0,weatherlink.com 1.10,2013-06-15 01:46:00,
2013-06-14 22:01:00,80.8,75.0,29.96,West,259,0.0,-999.0,81,-99.99,,,0.00,0,weatherlink.com 1.10,2013-06-15 02:01:00,
2013-06-14 22:16:00,80.6,75.0,29.97,West,262,0.0,-999.0,82,-99.99,,,0.00,0,weatherlink.com 1.10,2013-06-15 02:16:00,
2013-06-14 22:31:00,80.4,75.0,29.96,West,277,0.0,-999.0,82,-99.99,,,0.00,0,weatherlink.com 1.10,2013-06-15 02:31:00,
2013-06-14 22:46:00,80.4,75.0,29.96,WNW,288,3.0,-999.0,82,-99.99,,,0.00,0,weatherlink.com 1.10,2013-06-15 02:46:00,
2013-06-14 23:01:00,80.3,75.0,29.96,WNW,292,0.0,-999.0,83,-99.99,,,0.00,0,weatherlink.com 1.10,2013-06-15 03:01:00,
2013-06-14 23:16:00,80.2,75.0,29.97,West,269,1.0,-999.0,83,-99.99,,,0.00,0,weatherlink.com 1.10,2013-06-15 03:16:00,
2013-06-14 23:31:00,79.9,74.0,29.97,NW,306,0.0,-999.0,83,-99.99,,,0.00,0,weatherlink.com 1.10,2013-06-15 03:31:00,
2013-06-14 23:46:00,79.5,74.0,29.98,NW,306,0.0,-999.0,83,-99.99,,,0.00,0,weatherlink.com 1.10,2013-06-15 03:46:00,